Regional & State Weather Roundups


891 
ASUS41 KCLE 200110
RWRCLE
OHIO REGIONAL WEATHER ROUNDUP
NATIONAL WEATHER SERVICE WILMINGTON, OH
800 PM EST SAT JAN 19 2019
NOTE: "FAIR" INDICATES FEW OR NO CLOUDS BELOW 12,000 FEET WITH NO
SIGNIFICANT WEATHER AND/OR OBSTRUCTIONS TO VISIBILITY.
OHZ001>008-015>018-024>027-034-035-043-044-200200-
   NORTHWEST OHIO
  
CITY           SKY/WX    TMP DP  RH WIND       PRES   REMARKS
DEFIANCE       LGT SNOW  19  14  81 N22G35    29.85S WCI   2          
FINDLAY        LGT SNOW  22  18  85 N26G39    29.75F VSB 3/4 WCI   5  
TOLEDO EXPRESS LGT SNOW  20  16  84 N20G26    29.84F VSB 1   WCI   4  
TOLEDO EXEC    SNOW      21  18  88 N22G29    29.86S VSB 1/2 WCI   5  
LIMA           LGT SNOW  21  18  88 N23G39    29.72R VSB 3/4 WCI   5  
$$
 
OHZ009>014-019>023-028>033-038-089-200200-
   NORTHEAST OHIO
  
CITY           SKY/WX    TMP DP  RH WIND       PRES   REMARKS
CLE-HOPKINS    LGT SNOW  27  25  92 NE29G37   29.75S VSB 3/4 WCI  11  
CLE-LAKEFRONT  SNOW      27  25  92 NE35G44   29.73F VSB 1/4 WCI  10  
CUY CO. ARPT   LGT SNOW  25  23  93 NE20G26   29.73S VSB 1   WCI  11  
LORAIN-ELYRIA  LGT SNOW  26  20  77 NE28G38   29.73F VSB 3/4 WCI  10  
ASHTABULA      LGT SNOW  22  20  92 NE10G22   29.75F VSB 3/4 WCI  11  
AKRON-CANTON   LGT SNOW  28  24  85 NE20      29.62F VSB 1   WCI  15  
WOOSTER        LGT SNOW  26  25  96 N16G22    29.64F FOG     WCI  14  
MANSFIELD      LGT SNOW  26  24  92 N16G25    29.63F VSB 1   WCI  14  
YOUNGSTOWN     LGT SNOW  28  26  92 N12       29.65F VSB 1   WCI  18  
$$
 
OHZ042-051>053-060>062-070>072-077>081-200200-
  SOUTHWEST OHIO
  
CITY           SKY/WX    TMP DP  RH WIND       PRES   REMARKS
CINC-COVINGTON FRZ RAIN  32  32 100 N23G33    29.55R FOG     WCI  19  
CINC-LUNKEN    LGT RAIN  34  31  88 N14G22    29.58R FOG     WCI  25  
HAMILTON       FRZ RAIN  32  29  88 N13       29.61R FOG     WCI  22  
DAYTON         LGT SNOW  27  23  85 N25G37    29.62R FOG     WCI  12  
WRIGHT-PAT AFB FLURRIES  30  26  84 N17       29.57F WCI  18          
DAYTON GENERAL MIX PCPN  32  32 100 N22G28    29.57R WCI  19          
WILMINGTON     CLOUDY    30  27  88 NE16G28   29.53R WCI  19          
$$
OHZ036-037-039>041-045>050-054>059-063>069-073>076-082>088-200200-
  CENTRAL AND SOUTHEAST OHIO
  
CITY           SKY/WX    TMP DP  RH WIND       PRES   REMARKS
COLUMBUS       FRZ RAIN  32  29  88 NE17G28   29.55F FOG     WCI  21  
OSU AIRPORT    LGT RAIN  30  27  88 NE18G28   29.55F WCI  18          
BOLTON FIELD   NOT AVBL                                               
RICKENBACK AFB LGT RAIN  32  32 100 NE16      29.54F WCI  21          
NEWARK         FRZ RAIN  34  30  85 N9G21     29.57F WCI  27          
MARION         LGT SNOW  26  23  88 NE25G37   29.64F VSB 3/4 WCI  11  
LANCASTER      RAIN      33  32  96 N13       29.56S WCI  24          
ZANESVILLE     LGT RAIN  35  32  88 N8        29.56F FOG     WCI  29  
NEW PHILLY     LGT RAIN  33  30  88 N8        29.60F FOG     WCI  26  
$$